軌道要素
Epoch 2015 Feb. 27.0 TT = JDT 2457080.5
T 2015 Mar. 3.76427 TT Rudenko
q 1.4940813 (2000.0) P Q
n 0.16076495 Peri. 129.29192 -0.48194721 +0.86626466
a 3.3497198 Node 111.42138 -0.84112062 -0.41534026
e 0.5539683 Incl. 8.12543 -0.24544449 -0.27762928
P 6.13
From 121 observations 2015 May 15-2021 Jan. 18, mean residual 0".5.
|